Location: Antichan
(42.9728°N, 0.6667°E)
Time: 17:51:50
(UTC+00:00)

Okean 3 - Pass Details

Date: 15 August 2020
Orbit: 577 x 600 km, 82.5° (Epoch: 18 September)

Event Time Altitude Azimuth Distance (km) Brightness Sun altitude
Rises 22:02:57 0° 347° (NNW) 2,855 8.1 -27.2°
Reaches altitude 10° 22:05:12 10° 343° (NNW) 1,949 7.0 -27.4°
Enters shadow 22:08:40 48° 305° (NW) 790 4.3 -27.7°
